Crescent City, CA

8:26 AM PDT on August 19, 2017 (GMT -0700)
McNamara

Weather History for KCEC - February, 2013

Change the Weather History Date:

Thursday, February 28, 2013

  Actual Average Record
Temperature  
Mean Temperature 51 °F 48 °F  
Max Temperature 52 °F 54 °F 67 °F (1981)
Min Temperature 49 °F 42 °F 30 °F (1997)
Degree Days  
Heating Degree Days 14 17  
Month to date heating degree days 529 490  
Since 1 July heating degree days 3233 3173  
Cooling Degree Days 0 0  
Month to date cooling degree days 0 0  
Year to date cooling degree days 0 0  
Moisture  
Dew Point 50 °F    
Average Humidity 97    
Maximum Humidity 100    
Minimum Humidity 93    
Precipitation  
Precipitation 0.46 in 0.31 in 1.92 in (1974)
Month to date precipitation 3.27 8.88  
Year to date precipitation 8.47 19.27  
Since 1 July precipitation 42.17  
Snow  
Snow 0.00 in - - ()
Month to date snowfall 0.0  
Since 1 July snowfall 0.0  
Snow Depth 0.00 in    
Sea Level Pressure  
Sea Level Pressure 30.47 in    
Wind  
Wind Speed 10 mph (SSE)    
Max Wind Speed 20 mph    
Max Gust Speed 25 mph    
Visibility 3 miles    
Events Rain    
T = Trace of Precipitation, MM = Missing Value Source: NWS Daily Summary

Daily Weather History Graph

Daily Weather History Graph

Search for Another Location

Airport or City:

Trip Planner

Search our weather history database for the weather conditions in past years. The results will help you decide how hot, cold, wet, or windy it might be!

Date:

Astronomy

Feb. 28, 2013 Rise Set
Actual Time 6:52 AM PST 6:06 PM PST
Civil Twilight 6:24 AM PST 6:34 PM PST
Nautical Twilight 5:52 AM PST 7:06 PM PST
Astronomical Twilight 5:20 AM PST 7:39 PM PST
Moon 9:44 PM PST (2/28) 8:02 AM PST (2/28)
Length of Visible Light 12h 09m
Length of Day
11h 13m
Waning Gibbous, 90% of the Moon is Illuminated
Feb 28
Waning Gibbous
Mar 4
Last Quarter
Mar 11
New
Mar 19
First Quarter
Mar 27
Full

Hourly Weather History & Observations

Time (PST) Temp. Dew Point Humidity Pressure Visibility Wind Dir Wind Speed Gust Speed Precip Events Conditions
12:03 AM 50.0 °F 48.2 °F 94% 30.35 in 5.0 mi SSE 17.3 mph - 0.00 in Rain Light Rain
12:56 AM 50.0 °F 48.9 °F 96% 30.37 in 4.0 mi SSE 13.8 mph - 0.01 in Rain Light Rain
1:56 AM 50.0 °F 48.9 °F 96% 30.37 in 6.0 mi SSE 16.1 mph - 0.01 in Rain Light Rain
2:08 AM 50.0 °F 48.2 °F 94% 30.37 in 6.0 mi SSE 16.1 mph - 0.01 in Rain Light Rain
2:33 AM 50.0 °F 48.2 °F 94% 30.37 in 4.0 mi SSE 15.0 mph - 0.02 in Rain Light Rain
2:56 AM 50.0 °F 48.9 °F 96% 30.37 in 3.0 mi SSE 15.0 mph - 0.03 in Rain Light Rain
3:56 AM 48.9 °F 48.9 °F 100% 30.38 in 3.0 mi SSE 16.1 mph - 0.05 in Rain Light Rain
4:56 AM 48.9 °F 48.9 °F 100% 30.38 in 4.0 mi SSE 12.7 mph - 0.05 in Rain Light Rain
5:56 AM 50.0 °F 48.9 °F 96% 30.40 in 3.0 mi SSE 13.8 mph - 0.05 in Rain Light Rain
6:56 AM 48.9 °F 48.9 °F 100% 30.42 in 4.0 mi SSE 11.5 mph - 0.06 in Rain Light Rain
7:56 AM 50.0 °F 48.9 °F 96% 30.42 in 3.0 mi SSE 9.2 mph - 0.04 in Rain Light Rain
8:21 AM 50.0 °F 50.0 °F 100% 30.43 in 2.5 mi SSE 10.4 mph - 0.01 in Rain Light Rain
8:26 AM 50.0 °F 50.0 °F 100% 30.43 in 3.0 mi SSE 9.2 mph - 0.01 in Rain Light Rain
8:33 AM 50.0 °F 50.0 °F 100% 30.44 in 2.5 mi SSE 10.4 mph - 0.02 in Rain Light Rain
8:40 AM 50.0 °F 50.0 °F 100% 30.44 in 3.0 mi SSE 9.2 mph - 0.02 in Rain Light Rain
8:56 AM 50.0 °F 50.0 °F 100% 30.45 in 2.5 mi SSE 10.4 mph - 0.02 in Rain Light Rain
9:22 AM 50.0 °F 50.0 °F 100% 30.46 in 1.8 mi South 9.2 mph - 0.01 in Rain Light Rain
9:42 AM 51.8 °F 50.0 °F 94% 30.46 in 2.0 mi SSE 11.5 mph - 0.02 in Rain Light Rain
9:56 AM 51.1 °F 50.0 °F 96% 30.47 in 2.5 mi SSE 13.8 mph 19.6 mph 0.02 in Rain Light Rain
10:05 AM 51.8 °F 51.8 °F 100% 30.46 in 3.0 mi SSE 12.7 mph 19.6 mph 0.00 in Rain Light Rain
10:56 AM 52.0 °F 51.1 °F 97% 30.48 in 2.5 mi SSE 13.8 mph - 0.01 in Rain Light Rain
11:56 AM 52.0 °F 51.1 °F 97% 30.49 in 2.5 mi SSE 13.8 mph 21.9 mph 0.01 in Rain Light Rain
12:14 PM 51.8 °F 51.8 °F 100% 30.49 in 3.0 mi South 16.1 mph - 0.00 in Rain Light Rain
12:27 PM 51.8 °F 51.8 °F 100% 30.49 in 2.5 mi SSE 16.1 mph - 0.00 in Rain Light Rain
12:47 PM 51.8 °F 51.8 °F 100% 30.49 in 3.0 mi South 16.1 mph - 0.00 in Rain Light Rain
12:56 PM 51.1 °F 51.1 °F 100% 30.49 in 4.0 mi SSE 12.7 mph - 0.00 in Rain Light Rain
1:22 PM 51.8 °F 51.8 °F 100% 30.49 in 2.0 mi South 11.5 mph - 0.00 in Rain Light Rain
1:32 PM 51.8 °F 50.0 °F 94% 30.48 in 1.5 mi South 11.5 mph - 0.00 in Rain Light Rain
1:42 PM 51.8 °F 51.8 °F 100% 30.48 in 1.2 mi SSE 12.7 mph - 0.01 in Rain Light Rain
1:56 PM 50.0 °F 50.0 °F 100% 30.49 in 1.5 mi SSE 10.4 mph - 0.01 in Rain Light Rain
2:03 PM 50.0 °F 50.0 °F 100% 30.48 in 1.2 mi SSE 10.4 mph - 0.01 in Rain Light Rain
2:13 PM 50.0 °F 50.0 °F 100% 30.48 in 1.8 mi SSE 10.4 mph - 0.02 in Rain Light Rain
2:37 PM 50.0 °F 50.0 °F 100% 30.49 in 2.5 mi SSE 8.1 mph - 0.04 in Rain Light Rain
2:56 PM 50.0 °F 50.0 °F 100% 30.49 in 2.5 mi SSE 9.2 mph - 0.06 in Rain Light Rain
3:12 PM 50.0 °F 50.0 °F 100% 30.49 in 3.0 mi SSE 9.2 mph - 0.01 in Rain Light Rain
3:40 PM 50.0 °F 50.0 °F 100% 30.50 in 2.5 mi SSE 9.2 mph - 0.02 in Rain Light Rain
3:48 PM 50.0 °F 50.0 °F 100% 30.50 in 3.0 mi SSE 8.1 mph - 0.02 in Rain Light Rain
3:56 PM 50.0 °F 50.0 °F 100% 30.51 in 2.5 mi SSE 8.1 mph - 0.02 in Rain Light Rain
4:39 PM 50.0 °F 50.0 °F 100% 30.50 in 1.5 mi SSE 9.2 mph - 0.00 in Rain Light Rain
4:56 PM 50.0 °F 50.0 °F 100% 30.50 in 1.8 mi SSE 9.2 mph - 0.01 in Rain Light Rain
5:10 PM 51.8 °F 50.0 °F 94% 30.50 in 2.0 mi SSE 6.9 mph - N/A   Overcast
5:54 PM 50.0 °F 50.0 °F 100% 30.50 in 2.5 mi SSE 6.9 mph - N/A   Overcast
5:56 PM 50.0 °F 50.0 °F 100% 30.51 in 2.5 mi SSE 6.9 mph - N/A   Overcast
6:04 PM 50.0 °F 50.0 °F 100% 30.50 in 3.0 mi SSE 6.9 mph - N/A   Overcast
6:25 PM 50.0 °F 50.0 °F 100% 30.51 in 2.5 mi SSE 5.8 mph - N/A   Overcast
6:56 PM 50.0 °F 50.0 °F 100% 30.51 in 2.5 mi SE 5.8 mph - 0.00 in   Overcast
7:46 PM 50.0 °F 50.0 °F 100% 30.52 in 1.2 mi South 6.9 mph - N/A   Overcast
7:56 PM 48.9 °F 48.9 °F 100% 30.53 in 1.0 mi South 5.8 mph - N/A   Mist
8:56 PM 50.0 °F 48.9 °F 96% 30.53 in 2.0 mi SSE 4.6 mph - N/A   Overcast
9:06 PM 50.0 °F 50.0 °F 100% 30.53 in 4.0 mi SE 4.6 mph - N/A   Overcast
9:26 PM 50.0 °F 50.0 °F 100% 30.53 in 2.5 mi SE 3.5 mph - N/A   Overcast
9:35 PM 50.0 °F 50.0 °F 100% 30.53 in 1.2 mi SE 3.5 mph - N/A   Overcast
10:04 PM 50.0 °F 50.0 °F 100% 30.54 in 1.5 mi Calm Calm - N/A   Overcast
10:10 PM 50.0 °F 50.0 °F 100% 30.54 in 3.0 mi SSE 3.5 mph - N/A   Overcast
11:12 PM 50.0 °F 50.0 °F 100% 30.54 in 2.5 mi Calm Calm - N/A   Overcast
11:23 PM 48.2 °F 48.2 °F 100% 30.54 in 1.2 mi Calm Calm - N/A   Overcast
11:36 PM 48.2 °F 48.2 °F 100% 30.53 in 0.8 mi ESE 4.6 mph - N/A   Mist
11:56 PM 48.9 °F 48.9 °F 100% 30.53 in 0.8 mi Calm Calm - N/A   Mist